Regional Weather Roundup
Issued by NWS

Home | Current Version | Previous Version | Graphics & Text | Print | Product List | Glossary On
Versions: 1 2 3 4 5 6 7 8 9 10 11 12 13 14 15 16 17 18 19 20 21 22 23 24 25 26 27 28 29 30 31 32 33 34 35 36 37 38 39 40 41 42 43 44 45 46 47 48 49 50
000
ASUS43 KBIS 051202
RWRND

NORTH DAKOTA REGIONAL WEATHER ROUNDUP
NATIONAL WEATHER SERVICE BISMARCK ND
700 AM CDT SUN JUL 05 2015

NOTE: "FAIR" INDICATES FEW OR NO CLOUDS BELOW 12,000 FEET WITH NO
SIGNIFICANT WEATHER AND/OR OBSTRUCTIONS TO VISIBILITY.


NDZ001>003-009>011-017-051300-
NORTHWEST NORTH DAKOTA

CITY           SKY/WX    TMP DP  RH WIND       PRES   REMARKS
WILLISTON      LGT RAIN  64  63  96 N8        29.87F FOG
6HR MIN TEMP:  64; 6HR MAX TEMP:  68; 6HR PCP:  0.31;

MINOT          CLOUDY    64  61  90 N10       29.80R
$$

NDZ018>021-031>035-040>046-051300-
SOUTHWEST NORTH DAKOTA

CITY           SKY/WX    TMP DP  RH WIND       PRES   REMARKS
BISMARCK       CLOUDY    68  67  96 E6        29.71R FOG
6HR MIN TEMP:  67; 6HR MAX TEMP:  74;

DICKINSON      CLOUDY    64  60  87 NE10      29.80R
GARRISON         N/A     65  62  90 N9        29.78R
6HR MIN TEMP:  65; 6HR MAX TEMP:  67;

HETTINGER ARPT MOCLDY    73  55  53 NW20G29   29.80R
$$

NDZ004>008-012>016-024-026-027-054-051300-
NORTHEAST NORTH DAKOTA

CITY           SKY/WX    TMP DP  RH WIND       PRES   REMARKS
GRAND FORKS    PTSUNNY   70  67  90 SE15      29.75S
GRND FRKS AFB  MOSUNNY   69  66  91 S16       29.75S
DEVILS LAKE    PTSUNNY   66  61  82 NE7       29.73S
$$

NDZ022-023-025-028>030-036>039-047>053-051300-
SOUTHEAST NORTH DAKOTA

CITY           SKY/WX    TMP DP  RH WIND       PRES   REMARKS
FARGO          MOSUNNY   70  65  84 E8        29.78R HAZE
6HR MIN TEMP:  70; 6HR MAX TEMP:  74;

JAMESTOWN      MOSUNNY   70  66  87 S10       29.72F
$$



USA.gov is the U.S. government's official web portal to all federal, state and local government web resources and services.